This demonstration page uses our WeatherBlox Daily Observations layout. Learn more.

Left ArrowRight Arrow

Hourly Observations for July 3, 2015

Temp ( °F °C ) Dew Point ( °F °C ) Humidity (%) Winds ( mph kmh ) Pressure ( in mb ) Visibility ( mi km ) Precip ( " mm )
12:53 am 00:53 Clear 77 25 63 17.2 62 62 SSE 9 15 29.85 1011 10 16 0.00 0.00
1:53 am 01:53 Clear 76 24.4 62 16.7 62 62 SE 6 9 29.85 1011 10 16 0.00 0.00
2:53 am 02:53 Clear 75 23.9 62 16.7 64 64 E 6 9 29.84 1010 10 16 0.00 0.00
3:53 am 03:53 Clear 75 23.9 63 17.2 66 66 ESE 8 13 29.83 1010 10 16 0.00 0.00
4:53 am 04:53 Clear 75 23.9 63 17.2 66 66 ESE 9 15 29.83 1010 10 16 0.00 0.00
5:53 am 05:53 Clear 74 23.3 64 17.8 71 71 E 9 15 29.84 1010 10 16 0.00 0.00
6:53 am 06:53 Sunny 73 22.8 64 17.8 74 74 ESE 8 13 29.85 1011 10 16 0.00 0.00
7:50 am 07:50 Mostly Cloudy 73 23 64 18 74 74 ESE 7 11 29.85 1011 10 16 0.00 0.00
7:53 am 07:53 Mostly Cloudy 73 22.8 65 18.3 76 76 ESE 8 13 29.87 1012 10 16 0.00 0.00
8:50 am 08:50 Partly Cloudy 75 24 64 18 69 69 ESE 9 15 29.88 1012 10 16 0.00 0.00
8:53 am 08:53 Partly Cloudy 76 24.4 65 18.3 69 69 E 9 15 29.88 1012 10 16 0.00 0.00
9:16 am 09:16 Mostly Cloudy 75 24 64 18 69 69 ESE 8 13 29.88 1012 10 16 0.00 0.00
9:53 am 09:53 Mostly Cloudy 76 24.4 65 18.3 69 69 ESE 8 13 29.90 1012 10 16 0.00 0.00
10:53 am 10:53 Partly Cloudy 79 26.1 64 17.8 60 60 ESE 9 15 29.89 1012 10 16 0.00 0.00
11:53 am 11:53 Mostly Sunny 84 28.9 64 17.8 51 51 E 8 13 29.89 1012 10 16 0.00 0.00
12:53 pm 12:53 Partly Cloudy 86 30 63 17.2 46 46 NE 12 19 29.88 1012 10 16 0.00 0.00
1:53 pm 13:53 Mostly Cloudy 89 31.7 63 17.2 42 42 VRB 7 11 29.86 1011 10 16 0.00 0.00
2:53 pm 14:53 Partly Cloudy 89 31.7 62 16.7 41 41 ESE 13 20 29.84 1011 10 16 0.00 0.00
3:53 pm 15:53 Mostly Sunny 92 33.3 61 16.1 36 36 E 10 17 29.82 1010 10 16 0.00 0.00
4:53 pm 16:53 Sunny 91 32.8 61 16.1 37 37 E 12 19 29.80 1009 10 16 0.00 0.00
5:53 pm 17:53 Sunny 90 32.2 60 15.6 37 37 E 15 24 29.80 1009 10 16 0.00 0.00
6:53 pm 18:53 Mostly Sunny 89 31.7 60 15.6 38 38 ESE 10 17 29.80 1009 10 16 0.00 0.00
7:53 pm 19:53 Sunny 87 30.6 62 16.7 43 43 SE 12 19 29.78 1008 10 16 0.00 0.00
8:53 pm 20:53 Sunny 85 29.4 61 16.1 45 45 SSE 12 19 29.79 1009 10 16 0.00 0.00
9:53 pm 21:53 Clear 83 28.3 61 16.1 48 48 SE 7 11 29.81 1009 10 16 0.00 0.00
10:53 pm 22:53 Clear 81 27.2 61 16.1 51 51 SE 7 11 29.84 1010 10 16 0.00 0.00
11:53 pm 23:53 Clear 81 27.2 61 16.1 51 51 SE 9 15 29.85 1011 10 16 0.00 0.00

Powered by AerisWeather